contact:dominique.lefevre@mio.osupytheas.fr, maurice.libes@osupytheas.fr, didier.mallarino@osupytheas.fr
Project:EMSO http://www.emso-fr.org/EMSO-France
Depth: 2436.0 m
Title:EMSO Ligure Ouest : Data MII capteur MICROCAT
DateTime_Computer,Latitude,Longitude,Temperature,Conductivity,Pressure,DateTime_Instrument
DateTime_Computer,Latitude,Longitude,degC,S m-1,dbar,DateTime_Instrument
2024-03-28T08:53:08Z,42.805,6.029,13.3037,4.60132,2470.973,2024-3-28T10:55:47Z
2024-03-28T08:56:11Z,42.805,6.029,13.3043,4.60131,2470.987,2024-3-28T10:58:50Z
2024-03-28T08:59:14Z,42.805,6.029,13.3044,4.60132,2470.95,2024-3-28T11:01:53Z
2024-03-28T09:02:18Z,42.805,6.029,13.3045,4.60132,2470.927,2024-3-28T11:04:56Z
2024-03-28T09:05:21Z,42.805,6.029,13.3041,4.60132,2470.987,2024-3-28T11:07:59Z
2024-03-28T09:08:24Z,42.805,6.029,13.3041,4.60134,2470.973,2024-3-28T11:11:02Z
2024-03-28T09:11:27Z,42.805,6.029,13.3043,4.60133,2470.973,2024-3-28T11:14:05Z
2024-03-28T09:14:30Z,42.805,6.029,13.3042,4.60133,2470.95,2024-3-28T11:17:08Z
2024-03-28T09:17:33Z,42.805,6.029,13.3043,4.60132,2470.95,2024-3-28T11:20:12Z
2024-03-28T09:20:36Z,42.805,6.029,13.3041,4.60134,2470.95,2024-3-28T11:23:15Z
2024-03-28T09:23:39Z,42.805,6.029,13.3040,4.60132,2470.964,2024-3-28T11:26:18Z
2024-03-28T09:26:42Z,42.805,6.029,13.3042,4.60133,2470.973,2024-3-28T11:29:21Z
2024-03-28T09:29:45Z,42.805,6.029,13.3041,4.60132,2470.973,2024-3-28T11:32:24Z
2024-03-28T09:32:48Z,42.805,6.029,13.3046,4.60133,2470.973,2024-3-28T11:35:27Z
2024-03-28T09:35:52Z,42.805,6.029,13.3046,4.60132,2470.964,2024-3-28T11:38:30Z
2024-03-28T09:38:55Z,42.805,6.029,13.3043,4.60132,2470.95,2024-3-28T11:41:33Z
2024-03-28T09:41:58Z,42.805,6.029,13.3043,4.60132,2470.95,2024-3-28T11:44:36Z
2024-03-28T09:45:01Z,42.805,6.029,13.3041,4.60132,2470.95,2024-3-28T11:47:39Z
2024-03-28T09:48:04Z,42.805,6.029,13.3038,4.60132,2470.95,2024-3-28T11:50:42Z
2024-03-28T09:51:07Z,42.805,6.029,13.3043,4.60132,2470.927,2024-3-28T11:53:45Z
2024-03-28T09:54:10Z,42.805,6.029,13.3043,4.60132,2470.95,2024-3-28T11:56:49Z
2024-03-28T09:57:13Z,42.805,6.029,13.3045,4.60132,2470.95,2024-3-28T11:59:52Z
2024-03-28T10:00:16Z,42.805,6.029,13.3041,4.60133,2470.964,2024-3-28T12:02:55Z
2024-03-28T10:03:19Z,42.805,6.029,13.3042,4.60132,2470.95,2024-3-28T12:05:58Z
2024-03-28T10:06:22Z,42.805,6.029,13.3042,4.60132,2470.95,2024-3-28T12:09:01Z
2024-03-28T10:09:25Z,42.805,6.029,13.3039,4.60132,2470.927,2024-3-28T12:12:04Z
2024-03-28T10:12:29Z,42.805,6.029,13.3042,4.60132,2470.95,2024-3-28T12:15:07Z
2024-03-28T10:15:32Z,42.805,6.029,13.3043,4.60132,2470.927,2024-3-28T12:18:10Z
2024-03-28T10:18:35Z,42.805,6.029,13.3044,4.60133,2470.927,2024-3-28T12:21:13Z
2024-03-28T10:21:38Z,42.805,6.029,13.3045,4.60132,2470.964,2024-3-28T12:24:16Z
2024-03-28T10:24:41Z,42.805,6.029,13.3045,4.60133,2470.973,2024-3-28T12:27:19Z
2024-03-28T10:27:44Z,42.805,6.029,13.3048,4.60131,2470.95,2024-3-28T12:30:23Z
2024-03-28T10:30:47Z,42.805,6.029,13.3041,4.60131,2470.927,2024-3-28T12:33:26Z
2024-03-28T10:33:50Z,42.805,6.029,13.3043,4.60132,2470.95,2024-3-28T12:36:29Z
2024-03-28T10:36:53Z,42.805,6.029,13.3041,4.60132,2470.95,2024-3-28T12:39:32Z
2024-03-28T10:39:56Z,42.805,6.029,13.3043,4.60133,2470.964,2024-3-28T12:42:35Z
2024-03-28T10:42:59Z,42.805,6.029,13.3041,4.60132,2470.927,2024-3-28T12:45:38Z
2024-03-28T10:46:03Z,42.805,6.029,13.3043,4.60132,2470.927,2024-3-28T12:48:41Z
2024-03-28T10:49:06Z,42.805,6.029,13.3045,4.60132,2470.94,2024-3-28T12:51:44Z
2024-03-28T10:52:09Z,42.805,6.029,13.3043,4.60132,2470.95,2024-3-28T12:54:47Z
2024-03-28T10:55:12Z,42.805,6.029,13.3043,4.60132,2470.927,2024-3-28T12:57:50Z
2024-03-28T10:58:15Z,42.805,6.029,13.3046,4.60131,2470.927,2024-3-28T13:00:53Z
2024-03-28T11:01:18Z,42.805,6.029,13.3045,4.60131,2470.95,2024-3-28T13:03:57Z
2024-03-28T11:04:21Z,42.805,6.029,13.3042,4.60132,2470.88,2024-3-28T13:07:00Z
2024-03-28T11:07:24Z,42.805,6.029,13.3041,4.60132,2470.917,2024-3-28T13:10:03Z
2024-03-28T11:10:27Z,42.805,6.029,13.3041,4.60132,2470.904,2024-3-28T13:13:06Z
2024-03-28T11:13:30Z,42.805,6.029,13.3043,4.60132,2470.94,2024-3-28T13:16:09Z
2024-03-28T11:16:33Z,42.805,6.029,13.3042,4.60132,2470.927,2024-3-28T13:19:12Z
2024-03-28T11:19:36Z,42.805,6.029,13.3046,4.60132,2470.917,2024-3-28T13:22:15Z
2024-03-28T11:22:40Z,42.805,6.029,13.3043,4.60132,2470.927,2024-3-28T13:25:18Z
2024-03-28T11:25:43Z,42.805,6.029,13.3043,4.60131,2470.904,2024-3-28T13:28:21Z
2024-03-28T11:28:46Z,42.805,6.029,13.3043,4.60130,2470.927,2024-3-28T13:31:24Z
2024-03-28T11:31:49Z,42.805,6.029,13.3043,4.60132,2470.88,2024-3-28T13:34:27Z
2024-03-28T11:34:52Z,42.805,6.029,13.3043,4.60131,2470.917,2024-3-28T13:37:30Z
2024-03-28T11:37:55Z,42.805,6.029,13.3039,4.60131,2470.917,2024-3-28T13:40:34Z
2024-03-28T11:40:58Z,42.805,6.029,13.3041,4.60132,2470.927,2024-3-28T13:43:37Z
2024-03-28T11:44:01Z,42.805,6.029,13.3043,4.60132,2470.88,2024-3-28T13:46:40Z
2024-03-28T11:47:04Z,42.805,6.029,13.3043,4.60131,2470.894,2024-3-28T13:49:43Z
2024-03-28T11:50:07Z,42.805,6.029,13.3046,4.60132,2470.917,2024-3-28T13:52:46Z
2024-03-28T11:53:10Z,42.805,6.029,13.3044,4.60132,2470.894,2024-3-28T13:55:49Z
2024-03-28T11:56:13Z,42.805,6.029,13.3043,4.60131,2470.88,2024-3-28T13:58:52Z
2024-03-28T11:59:17Z,42.805,6.029,13.3042,4.60131,2470.904,2024-3-28T14:01:55Z
2024-03-28T12:02:20Z,42.805,6.029,13.3043,4.60132,2470.88,2024-3-28T14:04:58Z
2024-03-28T12:05:23Z,42.805,6.029,13.3043,4.60133,2470.88,2024-3-28T14:08:01Z
2024-03-28T12:08:26Z,42.805,6.029,13.3045,4.60133,2470.871,2024-3-28T14:11:04Z
2024-03-28T12:11:29Z,42.805,6.029,13.3043,4.60132,2470.88,2024-3-28T14:14:07Z
2024-03-28T12:14:32Z,42.805,6.029,13.3042,4.60132,2470.88,2024-3-28T14:17:11Z
2024-03-28T12:17:35Z,42.805,6.029,13.3043,4.60132,2470.904,2024-3-28T14:20:14Z
2024-03-28T12:20:38Z,42.805,6.029,13.3042,4.60133,2470.917,2024-3-28T14:23:17Z
2024-03-28T12:23:41Z,42.805,6.029,13.3043,4.60132,2470.857,2024-3-28T14:26:20Z
2024-03-28T12:26:44Z,42.805,6.029,13.3044,4.60132,2470.88,2024-3-28T14:29:23Z
2024-03-28T12:29:47Z,42.805,6.029,13.3043,4.60132,2470.904,2024-3-28T14:32:26Z
2024-03-28T12:32:50Z,42.805,6.029,13.3041,4.60132,2470.824,2024-3-28T14:35:29Z
2024-03-28T12:35:54Z,42.805,6.029,13.3039,4.60131,2470.88,2024-3-28T14:38:32Z
2024-03-28T12:38:57Z,42.805,6.029,13.3043,4.60131,2470.857,2024-3-28T14:41:35Z
2024-03-28T12:42:00Z,42.805,6.029,13.3047,4.60132,2470.871,2024-3-28T14:44:38Z
2024-03-28T12:45:03Z,42.805,6.029,13.3040,4.60131,2470.857,2024-3-28T14:47:41Z
2024-03-28T12:48:06Z,42.805,6.029,13.3043,4.60132,2470.857,2024-3-28T14:50:45Z
2024-03-28T12:51:09Z,42.805,6.029,13.3046,4.60132,2470.871,2024-3-28T14:53:48Z
2024-03-28T12:54:12Z,42.805,6.029,13.3045,4.60132,2470.833,2024-3-28T14:56:51Z
2024-03-28T12:57:15Z,42.805,6.029,13.3042,4.60134,2470.847,2024-3-28T14:59:54Z
2024-03-28T13:00:18Z,42.805,6.029,13.3042,4.60131,2470.833,2024-3-28T15:02:57Z
2024-03-28T13:03:21Z,42.805,6.029,13.3041,4.60132,2470.847,2024-3-28T15:06:00Z
2024-03-28T13:06:24Z,42.805,6.029,13.3042,4.60132,2470.833,2024-3-28T15:09:03Z
2024-03-28T13:09:28Z,42.805,6.029,13.3040,4.60132,2470.871,2024-3-28T15:12:06Z
2024-03-28T13:12:31Z,42.805,6.029,13.3043,4.60133,2470.81,2024-3-28T15:15:09Z
2024-03-28T13:15:34Z,42.805,6.029,13.3046,4.60133,2470.857,2024-3-28T15:18:12Z
2024-03-28T13:18:37Z,42.805,6.029,13.3038,4.60132,2470.833,2024-3-28T15:21:15Z
2024-03-28T13:21:40Z,42.805,6.029,13.3046,4.60132,2470.833,2024-3-28T15:24:18Z
2024-03-28T13:24:43Z,42.805,6.029,13.3046,4.60132,2470.847,2024-3-28T15:27:21Z
2024-03-28T13:27:46Z,42.805,6.029,13.3043,4.60133,2470.81,2024-3-28T15:30:25Z
2024-03-28T13:30:49Z,42.805,6.029,13.3043,4.60132,2470.847,2024-3-28T15:33:28Z
2024-03-28T13:33:52Z,42.805,6.029,13.3044,4.60131,2470.81,2024-3-28T15:36:31Z
2024-03-28T13:36:55Z,42.805,6.029,13.3043,4.60131,2470.824,2024-3-28T15:39:34Z
2024-03-28T13:39:58Z,42.805,6.029,13.3045,4.60132,2470.824,2024-3-28T15:42:37Z
2024-03-28T13:43:01Z,42.805,6.029,13.3043,4.60132,2470.833,2024-3-28T15:45:40Z
2024-03-28T13:46:05Z,42.805,6.029,13.3043,4.60132,2470.824,2024-3-28T15:48:43Z
2024-03-28T13:49:08Z,42.805,6.029,13.3043,4.60132,2470.81,2024-3-28T15:51:46Z
2024-03-28T13:52:11Z,42.805,6.029,13.3040,4.60131,2470.847,2024-3-28T15:54:49Z
2024-03-28T13:55:14Z,42.805,6.029,13.3046,4.60132,2470.824,2024-3-28T15:57:52Z
2024-03-28T13:58:17Z,42.805,6.029,13.3045,4.60132,2470.824,2024-3-28T16:00:55Z
2024-03-28T14:01:20Z,42.805,6.029,13.3041,4.60132,2470.81,2024-3-28T16:03:59Z
2024-03-28T14:04:23Z,42.805,6.029,13.3042,4.60131,2470.81,2024-3-28T16:07:02Z
2024-03-28T14:07:26Z,42.805,6.029,13.3043,4.60132,2470.847,2024-3-28T16:10:05Z
2024-03-28T14:10:29Z,42.805,6.029,13.3040,4.60131,2470.81,2024-3-28T16:13:08Z
2024-03-28T14:13:32Z,42.805,6.029,13.3047,4.60131,2470.833,2024-3-28T16:16:11Z
2024-03-28T14:16:35Z,42.805,6.029,13.3043,4.60132,2470.833,2024-3-28T16:19:14Z
2024-03-28T14:19:38Z,42.805,6.029,13.3042,4.60132,2470.787,2024-3-28T16:22:17Z
2024-03-28T14:22:42Z,42.805,6.029,13.3043,4.60131,2470.81,2024-3-28T16:25:20Z
2024-03-28T14:25:45Z,42.805,6.029,13.3043,4.60134,2470.81,2024-3-28T16:28:23Z
2024-03-28T14:28:48Z,42.805,6.029,13.3042,4.60133,2470.787,2024-3-28T16:31:26Z
2024-03-28T14:31:51Z,42.805,6.029,13.3042,4.60132,2470.833,2024-3-28T16:34:29Z
2024-03-28T14:34:54Z,42.805,6.029,13.3043,4.60132,2470.824,2024-3-28T16:37:33Z
2024-03-28T14:37:57Z,42.805,6.029,13.3043,4.60132,2470.824,2024-3-28T16:40:36Z
2024-03-28T14:41:00Z,42.805,6.029,13.3043,4.60131,2470.787,2024-3-28T16:43:39Z
2024-03-28T14:44:03Z,42.805,6.029,13.3046,4.60131,2470.787,2024-3-28T16:46:42Z
2024-03-28T14:47:06Z,42.805,6.029,13.3046,4.60131,2470.787,2024-3-28T16:49:45Z
2024-03-28T14:50:09Z,42.805,6.029,13.3045,4.60131,2470.8,2024-3-28T16:52:48Z
2024-03-28T14:53:12Z,42.805,6.029,13.3045,4.60132,2470.81,2024-3-28T16:55:51Z
2024-03-28T14:56:16Z,42.805,6.029,13.3044,4.60131,2470.8,2024-3-28T16:58:54Z
2024-03-28T14:59:19Z,42.805,6.029,13.3043,4.60132,2470.787,2024-3-28T17:01:57Z
2024-03-28T15:02:22Z,42.805,6.029,13.3046,4.60132,2470.787,2024-3-28T17:05:00Z
2024-03-28T15:05:25Z,42.805,6.029,13.3042,4.60133,2470.787,2024-3-28T17:08:03Z
2024-03-28T15:08:28Z,42.805,6.029,13.3041,4.60132,2470.833,2024-3-28T17:11:06Z
2024-03-28T15:11:31Z,42.805,6.029,13.3044,4.60133,2470.824,2024-3-28T17:14:10Z
2024-03-28T15:14:34Z,42.805,6.029,13.3047,4.60133,2470.81,2024-3-28T17:17:13Z
2024-03-28T15:17:37Z,42.805,6.029,13.3045,4.60132,2470.81,2024-3-28T17:20:16Z
2024-03-28T15:20:40Z,42.805,6.029,13.3043,4.60131,2470.81,2024-3-28T17:23:19Z
2024-03-28T15:23:43Z,42.805,6.029,13.3042,4.60133,2470.8,2024-3-28T17:26:22Z
2024-03-28T15:26:46Z,42.805,6.029,13.3040,4.60133,2470.787,2024-3-28T17:29:25Z
2024-03-28T15:29:49Z,42.805,6.029,13.3042,4.60132,2470.824,2024-3-28T17:32:28Z
2024-03-28T15:32:53Z,42.805,6.029,13.3047,4.60133,2470.824,2024-3-28T17:35:31Z
2024-03-28T15:35:56Z,42.805,6.029,13.3045,4.60133,2470.787,2024-3-28T17:38:34Z
2024-03-28T15:38:59Z,42.805,6.029,13.3043,4.60132,2470.833,2024-3-28T17:41:37Z
2024-03-28T15:42:02Z,42.805,6.029,13.3045,4.60133,2470.787,2024-3-28T17:44:40Z
2024-03-28T15:45:05Z,42.805,6.029,13.3042,4.60132,2470.8,2024-3-28T17:47:44Z
2024-03-28T15:48:08Z,42.805,6.029,13.3039,4.60132,2470.787,2024-3-28T17:50:47Z
2024-03-28T15:51:11Z,42.805,6.029,13.3046,4.60132,2470.8,2024-3-28T17:53:50Z
2024-03-28T15:54:14Z,42.805,6.029,13.3047,4.60132,2470.787,2024-3-28T17:56:53Z
2024-03-28T15:57:17Z,42.805,6.029,13.3044,4.60132,2470.787,2024-3-28T17:59:56Z
2024-03-28T16:00:20Z,42.805,6.029,13.3044,4.60132,2470.787,2024-3-28T18:02:59Z
2024-03-28T16:03:23Z,42.805,6.029,13.3046,4.60133,2470.787,2024-3-28T18:06:02Z
2024-03-28T16:06:27Z,42.805,6.029,13.3044,4.60133,2470.787,2024-3-28T18:09:05Z
2024-03-28T16:09:30Z,42.805,6.029,13.3043,4.60132,2470.81,2024-3-28T18:12:08Z
2024-03-28T16:12:33Z,42.805,6.029,13.3043,4.60132,2470.787,2024-3-28T18:15:11Z
2024-03-28T16:15:36Z,42.805,6.029,13.3043,4.60132,2470.81,2024-3-28T18:18:14Z
2024-03-28T16:18:39Z,42.805,6.029,13.3038,4.60132,2470.8,2024-3-28T18:21:17Z
2024-03-28T16:21:42Z,42.805,6.029,13.3041,4.60132,2470.8,2024-3-28T18:24:20Z
2024-03-28T16:24:45Z,42.805,6.029,13.3046,4.60135,2470.787,2024-3-28T18:27:24Z
2024-03-28T16:27:48Z,42.805,6.029,13.3046,4.60132,2470.74,2024-3-28T18:30:27Z
2024-03-28T16:30:51Z,42.805,6.029,13.3042,4.60132,2470.787,2024-3-28T18:33:30Z
2024-03-28T16:33:54Z,42.805,6.029,13.3044,4.60131,2470.81,2024-3-28T18:36:33Z
2024-03-28T16:36:57Z,42.805,6.029,13.3041,4.60131,2470.787,2024-3-28T18:39:36Z
2024-03-28T16:40:00Z,42.805,6.029,13.3043,4.60132,2470.787,2024-3-28T18:42:39Z
2024-03-28T16:43:04Z,42.805,6.029,13.3042,4.60132,2470.81,2024-3-28T18:45:42Z
2024-03-28T16:46:07Z,42.805,6.029,13.3042,4.60131,2470.787,2024-3-28T18:48:45Z
2024-03-28T16:49:10Z,42.805,6.029,13.3044,4.60132,2470.81,2024-3-28T18:51:48Z
2024-03-28T16:52:13Z,42.805,6.029,13.3045,4.60132,2470.787,2024-3-28T18:54:51Z
2024-03-28T16:55:16Z,42.805,6.029,13.3043,4.60132,2470.833,2024-3-28T18:57:54Z
2024-03-28T16:58:19Z,42.805,6.029,13.3045,4.60132,2470.81,2024-3-28T19:00:58Z
2024-03-28T17:01:22Z,42.805,6.029,13.3043,4.60131,2470.81,2024-3-28T19:04:01Z
2024-03-28T17:04:25Z,42.805,6.029,13.3043,4.60132,2470.787,2024-3-28T19:07:04Z
2024-03-28T17:07:28Z,42.805,6.029,13.3044,4.60132,2470.8,2024-3-28T19:10:07Z
2024-03-28T17:10:31Z,42.805,6.029,13.3046,4.60132,2470.81,2024-3-28T19:13:10Z
2024-03-28T17:13:34Z,42.805,6.029,13.3043,4.60133,2470.81,2024-3-28T19:16:13Z
2024-03-28T17:16:37Z,42.805,6.029,13.3043,4.60132,2470.847,2024-3-28T19:19:16Z
2024-03-28T17:19:41Z,42.805,6.029,13.3044,4.60132,2470.81,2024-3-28T19:22:19Z
2024-03-28T17:22:44Z,42.805,6.029,13.3045,4.60135,2470.847,2024-3-28T19:25:22Z
2024-03-28T17:25:47Z,42.805,6.029,13.3044,4.60131,2470.833,2024-3-28T19:28:25Z
2024-03-28T17:28:50Z,42.805,6.029,13.3044,4.60132,2470.81,2024-3-28T19:31:28Z
2024-03-28T17:31:53Z,42.805,6.029,13.3043,4.60132,2470.82,2024-3-28T19:34:31Z
2024-03-28T17:34:56Z,42.805,6.029,13.3045,4.60131,2470.847,2024-3-28T19:37:35Z
2024-03-28T17:37:59Z,42.805,6.029,13.3043,4.60134,2470.857,2024-3-28T19:40:38Z
2024-03-28T17:41:02Z,42.805,6.029,13.3041,4.60132,2470.833,2024-3-28T19:43:41Z
2024-03-28T17:44:05Z,42.805,6.029,13.3046,4.60132,2470.833,2024-3-28T19:46:44Z
2024-03-28T17:47:08Z,42.805,6.029,13.3047,4.60132,2470.884,2024-3-28T19:49:47Z
2024-03-28T17:50:11Z,42.805,6.029,13.3048,4.60133,2470.833,2024-3-28T19:52:50Z
2024-03-28T17:53:15Z,42.805,6.029,13.3046,4.60132,2470.833,2024-3-28T19:55:53Z
2024-03-28T17:56:18Z,42.805,6.029,13.3043,4.60133,2470.857,2024-3-28T19:58:56Z
2024-03-28T17:59:21Z,42.805,6.029,13.3041,4.60131,2470.824,2024-3-28T20:01:59Z
2024-03-28T18:02:24Z,42.805,6.029,13.3045,4.60132,2470.857,2024-3-28T20:05:02Z
2024-03-28T18:05:27Z,42.805,6.029,13.3046,4.60134,2470.857,2024-3-28T20:08:05Z
2024-03-28T18:08:30Z,42.805,6.029,13.3041,4.60133,2470.894,2024-3-28T20:11:09Z
2024-03-28T18:11:33Z,42.805,6.029,13.3045,4.60133,2470.88,2024-3-28T20:14:12Z
2024-03-28T18:14:36Z,42.805,6.029,13.3043,4.60133,2470.88,2024-3-28T20:17:15Z
2024-03-28T18:17:39Z,42.805,6.029,13.3043,4.60132,2470.904,2024-3-28T20:20:18Z
2024-03-28T18:20:42Z,42.805,6.029,13.3041,4.60132,2470.871,2024-3-28T20:23:21Z
2024-03-28T18:23:45Z,42.805,6.029,13.3043,4.60132,2470.857,2024-3-28T20:26:24Z
2024-03-28T18:26:48Z,42.805,6.029,13.3043,4.60135,2470.871,2024-3-28T20:29:27Z
2024-03-28T18:29:52Z,42.805,6.029,13.3046,4.60131,2470.894,2024-3-28T20:32:30Z
2024-03-28T18:32:55Z,42.805,6.029,13.3046,4.60132,2470.88,2024-3-28T20:35:33Z
2024-03-28T18:35:58Z,42.805,6.029,13.3044,4.60131,2470.88,2024-3-28T20:38:36Z
2024-03-28T18:39:01Z,42.805,6.029,13.3046,4.60135,2470.94,2024-3-28T20:41:39Z
2024-03-28T18:42:04Z,42.805,6.029,13.3044,4.60132,2470.904,2024-3-28T20:44:42Z
2024-03-28T18:45:07Z,42.805,6.029,13.3041,4.60135,2470.917,2024-3-28T20:47:46Z
2024-03-28T18:48:10Z,42.805,6.029,13.3043,4.60132,2470.857,2024-3-28T20:50:49Z
2024-03-28T18:51:13Z,42.805,6.029,13.3044,4.60132,2470.904,2024-3-28T20:53:52Z
2024-03-28T18:54:16Z,42.805,6.029,13.3046,4.60132,2470.904,2024-3-28T20:56:55Z
2024-03-28T18:57:19Z,42.805,6.029,13.3045,4.60134,2470.88,2024-3-28T20:59:58Z
2024-03-28T19:00:22Z,42.805,6.029,13.3044,4.60134,2470.904,2024-3-28T21:03:01Z
2024-03-28T19:03:25Z,42.805,6.029,13.3046,4.60132,2470.917,2024-3-28T21:06:04Z
2024-03-28T19:06:29Z,42.805,6.029,13.3043,4.60133,2470.927,2024-3-28T21:09:07Z
2024-03-28T19:09:32Z,42.805,6.029,13.3046,4.60132,2470.927,2024-3-28T21:12:10Z
2024-03-28T19:12:35Z,42.805,6.029,13.3044,4.60133,2470.917,2024-3-28T21:15:13Z
2024-03-28T19:15:38Z,42.805,6.029,13.3042,4.60133,2470.88,2024-3-28T21:18:16Z
2024-03-28T19:18:41Z,42.805,6.029,13.3041,4.60132,2470.927,2024-3-28T21:21:20Z
2024-03-28T19:21:44Z,42.805,6.029,13.3044,4.60132,2470.927,2024-3-28T21:24:23Z
2024-03-28T19:24:47Z,42.805,6.029,13.3041,4.60135,2470.927,2024-3-28T21:27:26Z
2024-03-28T19:27:50Z,42.805,6.029,13.3043,4.60132,2470.964,2024-3-28T21:30:29Z
2024-03-28T19:30:53Z,42.805,6.029,13.3044,4.60133,2470.904,2024-3-28T21:33:32Z
2024-03-28T19:33:56Z,42.805,6.029,13.3043,4.60133,2470.95,2024-3-28T21:36:35Z
2024-03-28T19:36:59Z,42.805,6.029,13.3043,4.60133,2470.927,2024-3-28T21:39:38Z
2024-03-28T19:40:03Z,42.805,6.029,13.3043,4.60133,2470.95,2024-3-28T21:42:41Z
2024-03-28T19:43:06Z,42.805,6.029,13.3046,4.60133,2470.95,2024-3-28T21:45:44Z
2024-03-28T19:46:09Z,42.805,6.029,13.3039,4.60134,2470.95,2024-3-28T21:48:47Z
2024-03-28T19:49:12Z,42.805,6.029,13.3046,4.60134,2470.95,2024-3-28T21:51:50Z
2024-03-28T19:52:15Z,42.805,6.029,13.3043,4.60133,2470.94,2024-3-28T21:54:53Z
2024-03-28T19:55:18Z,42.805,6.029,13.3039,4.60132,2470.987,2024-3-28T21:57:57Z
2024-03-28T19:58:21Z,42.805,6.029,13.3043,4.60133,2470.94,2024-3-28T22:01:00Z
2024-03-28T20:01:24Z,42.805,6.029,13.3042,4.60133,2470.95,2024-3-28T22:04:03Z
2024-03-28T20:04:27Z,42.805,6.029,13.3039,4.60132,2471.01,2024-3-28T22:07:06Z
2024-03-28T20:07:30Z,42.805,6.029,13.3043,4.60132,2470.95,2024-3-28T22:10:09Z
2024-03-28T20:10:33Z,42.805,6.029,13.3041,4.60134,2470.973,2024-3-28T22:13:12Z
2024-03-28T20:13:36Z,42.805,6.029,13.3042,4.60135,2470.964,2024-3-28T22:16:15Z
2024-03-28T20:16:40Z,42.805,6.029,13.3046,4.60133,2470.964,2024-3-28T22:19:18Z
2024-03-28T20:19:43Z,42.805,6.029,13.3044,4.60134,2470.964,2024-3-28T22:22:21Z
2024-03-28T20:22:46Z,42.805,6.029,13.3041,4.60135,2470.964,2024-3-28T22:25:24Z
2024-03-28T20:25:49Z,42.805,6.029,13.3046,4.60135,2470.95,2024-3-28T22:28:27Z
2024-03-28T20:28:52Z,42.805,6.029,13.3048,4.60136,2470.987,2024-3-28T22:31:31Z
2024-03-28T20:31:55Z,42.805,6.029,13.3043,4.60132,2470.95,2024-3-28T22:34:34Z
2024-03-28T20:34:58Z,42.805,6.029,13.3045,4.60132,2470.987,2024-3-28T22:37:37Z
2024-03-28T20:38:01Z,42.805,6.029,13.3042,4.60137,2470.964,2024-3-28T22:40:40Z
2024-03-28T20:41:04Z,42.805,6.029,13.3045,4.60135,2470.987,2024-3-28T22:43:43Z
2024-03-28T20:44:07Z,42.805,6.029,13.3044,4.60133,2470.973,2024-3-28T22:46:46Z
2024-03-28T20:47:10Z,42.805,6.029,13.3041,4.60133,2470.964,2024-3-28T22:49:49Z
2024-03-28T20:50:14Z,42.805,6.029,13.3043,4.60132,2470.927,2024-3-28T22:52:52Z
2024-03-28T20:53:17Z,42.805,6.029,13.3046,4.60134,2470.95,2024-3-28T22:55:55Z
2024-03-28T20:56:20Z,42.805,6.029,13.3042,4.60134,2470.964,2024-3-28T22:58:58Z
2024-03-28T20:59:23Z,42.805,6.029,13.3043,4.60132,2470.973,2024-3-28T23:02:01Z
2024-03-28T21:02:26Z,42.805,6.029,13.3044,4.60133,2470.964,2024-3-28T23:05:05Z
2024-03-28T21:05:29Z,42.805,6.029,13.3043,4.60133,2470.973,2024-3-28T23:08:08Z
2024-03-28T21:08:32Z,42.805,6.029,13.3047,4.60132,2470.95,2024-3-28T23:11:11Z
2024-03-28T21:11:35Z,42.805,6.029,13.3048,4.60133,2470.94,2024-3-28T23:14:14Z
2024-03-28T21:14:38Z,42.805,6.029,13.3043,4.60133,2470.95,2024-3-28T23:17:17Z
2024-03-28T21:17:41Z,42.805,6.029,13.3043,4.60133,2470.997,2024-3-28T23:20:20Z
2024-03-28T21:20:44Z,42.805,6.029,13.3045,4.60132,2470.95,2024-3-28T23:23:23Z
2024-03-28T21:23:48Z,42.805,6.029,13.3046,4.60135,2470.973,2024-3-28T23:26:26Z
2024-03-28T21:26:51Z,42.805,6.029,13.3044,4.60132,2470.95,2024-3-28T23:29:29Z
2024-03-28T21:29:54Z,42.805,6.029,13.3048,4.60135,2470.964,2024-3-28T23:32:32Z
2024-03-28T21:32:57Z,42.805,6.029,13.3044,4.60133,2470.997,2024-3-28T23:35:35Z
2024-03-28T21:36:00Z,42.805,6.029,13.3043,4.60133,2470.95,2024-3-28T23:38:39Z
2024-03-28T21:39:03Z,42.805,6.029,13.3045,4.60132,2470.95,2024-3-28T23:41:42Z
2024-03-28T21:42:06Z,42.805,6.029,13.3045,4.60135,2470.95,2024-3-28T23:44:45Z
2024-03-28T21:45:09Z,42.805,6.029,13.3047,4.60133,2470.973,2024-3-28T23:47:48Z
2024-03-28T21:48:12Z,42.805,6.029,13.3043,4.60135,2470.964,2024-3-28T23:50:51Z
2024-03-28T21:51:15Z,42.805,6.029,13.3044,4.60132,2470.964,2024-3-28T23:53:54Z
2024-03-28T21:54:18Z,42.805,6.029,13.3044,4.60132,2470.927,2024-3-28T23:56:57Z
2024-03-28T21:57:22Z,42.805,6.029,13.3045,4.60133,2470.95,2024-3-29T00:00:00Z
2024-03-28T22:00:25Z,42.805,6.029,13.3042,4.60134,2470.95,2024-3-29T00:03:03Z
2024-03-28T22:03:28Z,42.805,6.029,13.3046,4.60134,2470.987,2024-3-29T00:06:06Z
2024-03-28T22:06:31Z,42.805,6.029,13.3043,4.60134,2470.95,2024-3-29T00:09:09Z
2024-03-28T22:09:34Z,42.805,6.029,13.3042,4.60134,2470.927,2024-3-29T00:12:12Z
2024-03-28T22:12:37Z,42.805,6.029,13.3045,4.60133,2470.964,2024-3-29T00:15:16Z
2024-03-28T22:15:40Z,42.805,6.029,13.3047,4.60135,2470.95,2024-3-29T00:18:19Z
2024-03-28T22:18:43Z,42.805,6.029,13.3043,4.60134,2470.95,2024-3-29T00:21:22Z
2024-03-28T22:21:46Z,42.805,6.029,13.3044,4.60132,2470.964,2024-3-29T00:24:25Z
2024-03-28T22:24:49Z,42.805,6.029,13.3044,4.60134,2470.964,2024-3-29T00:27:28Z
2024-03-28T22:27:52Z,42.805,6.029,13.3043,4.60134,2470.927,2024-3-29T00:30:31Z
2024-03-28T22:30:55Z,42.805,6.029,13.3043,4.60135,2470.973,2024-3-29T00:33:34Z
2024-03-28T22:33:58Z,42.805,6.029,13.3049,4.60134,2470.964,2024-3-29T00:36:37Z
2024-03-28T22:37:02Z,42.805,6.029,13.3044,4.60135,2470.95,2024-3-29T00:39:40Z
2024-03-28T22:40:05Z,42.805,6.029,13.3047,4.60135,2470.95,2024-3-29T00:42:43Z
2024-03-28T22:43:08Z,42.805,6.029,13.3043,4.60134,2470.904,2024-3-29T00:45:46Z
2024-03-28T22:46:11Z,42.805,6.029,13.3044,4.60134,2470.927,2024-3-29T00:48:49Z
2024-03-28T22:49:14Z,42.805,6.029,13.3047,4.60134,2470.95,2024-3-29T00:51:53Z
2024-03-28T22:52:17Z,42.805,6.029,13.3043,4.60135,2470.927,2024-3-29T00:54:56Z
2024-03-28T22:55:20Z,42.805,6.029,13.3045,4.60135,2470.94,2024-3-29T00:57:59Z
2024-03-28T22:58:23Z,42.805,6.029,13.3048,4.60134,2470.927,2024-3-29T01:01:02Z
2024-03-28T23:01:26Z,42.805,6.029,13.3043,4.60133,2470.94,2024-3-29T01:04:05Z
2024-03-28T23:04:29Z,42.805,6.029,13.3046,4.60133,2470.927,2024-3-29T01:07:08Z
2024-03-28T23:07:32Z,42.805,6.029,13.3043,4.60136,2470.927,2024-3-29T01:10:11Z
2024-03-28T23:10:35Z,42.805,6.029,13.3043,4.60133,2470.927,2024-3-29T01:13:14Z
2024-03-28T23:13:39Z,42.805,6.029,13.3045,4.60133,2470.95,2024-3-29T01:16:17Z
2024-03-28T23:16:42Z,42.805,6.029,13.3044,4.60133,2470.927,2024-3-29T01:19:20Z
2024-03-28T23:19:45Z,42.805,6.029,13.3045,4.60132,2470.927,2024-3-29T01:22:23Z
2024-03-28T23:22:48Z,42.805,6.029,13.3047,4.60135,2470.94,2024-3-29T01:25:26Z
2024-03-28T23:25:51Z,42.805,6.029,13.3046,4.60133,2470.927,2024-3-29T01:28:30Z
2024-03-28T23:28:54Z,42.805,6.029,13.3047,4.60133,2470.927,2024-3-29T01:31:33Z
2024-03-28T23:31:57Z,42.805,6.029,13.3045,4.60132,2470.927,2024-3-29T01:34:36Z
2024-03-28T23:35:00Z,42.805,6.029,13.3043,4.60132,2470.927,2024-3-29T01:37:39Z
2024-03-28T23:38:03Z,42.805,6.029,13.3044,4.60132,2470.904,2024-3-29T01:40:42Z
2024-03-28T23:41:06Z,42.805,6.029,13.3044,4.60134,2470.917,2024-3-29T01:43:45Z
2024-03-28T23:44:09Z,42.805,6.029,13.3043,4.60132,2470.917,2024-3-29T01:46:48Z
2024-03-28T23:47:12Z,42.805,6.029,13.3044,4.60135,2470.904,2024-3-29T01:49:51Z
2024-03-28T23:50:16Z,42.805,6.029,13.3042,4.60131,2470.917,2024-3-29T01:52:54Z
2024-03-28T23:53:19Z,42.805,6.029,13.3045,4.60132,2470.88,2024-3-29T01:55:57Z
2024-03-28T23:56:22Z,42.805,6.029,13.3043,4.60133,2470.917,2024-3-29T01:59:00Z
2024-03-28T23:59:25Z,42.805,6.029,13.3042,4.60131,2470.917,2024-3-29T02:02:03Z
